[Iaude] MPEC U10: COMET C/2016 T3 (PANSTARRS)

mpec at si.edu mpec at si.edu
Tue Oct 18 09:47:54 EDT 2016


M.P.E.C. 2016-U10                                Issued 2016 Oct. 18, 13:43 UT
 
     The Minor Planet Electronic Circulars contain information on unusual
         minor planets and routine data on comets.  They are published
    on behalf of Division F of the International Astronomical Union by the
          Minor Planet Center, Smithsonian Astrophysical Observatory,
                          Cambridge, MA 02138, U.S.A.

             Prepared using the Tamkin Foundation Computer Network

                              MPC at CFA.HARVARD.EDU
            URL http://www.minorplanetcenter.net/    ISSN 1523-6714


                          COMET C/2016 T3 (PANSTARRS)
 
Observations:
    CK16T030  C2016 10 10.38004 01 40 59.468+37 39 00.75         20.1 TLEU010F51
    CK16T030  C2016 10 10.39169 01 40 59.085+37 38 59.47         20.1 TLEU010F51
    CK16T030  C2016 10 10.40337 01 40 58.677+37 38 58.24         20.1 TLEU010F51
    CK16T030 _C2016 10 11.57625901 40 18.995+37 36 42.68         19.9 TUEU010568
    CK16T030 _C2016 10 11.57729601 40 18.960+37 36 42.51         20.0 TUEU010568
    CK16T030 _C2016 10 11.57833501 40 18.923+37 36 42.37         19.8 TUEU010568
    CK16T030 6C2016 10 12.09141 01 40 01.48 +37 35 37.6                vEU010I89
    CK16T030 6C2016 10 12.09512 01 40 01.33 +37 35 37.0                vEU010I89
    CK16T030 6C2016 10 12.09882 01 40 01.19 +37 35 36.3          19.0 TvEU010I89
    CK16T030 9C2016 10 12.19306 01 39 57.99 +37 35 25.3          19.6 TqEU010G40
    CK16T030 9C2016 10 12.20102 01 39 57.74 +37 35 24.0                qEU010G40
    CK16T030  C2016 10 12.31317 01 39 53.98 +37 35 10.4          19.2 ToEU010926
    CK16T030  C2016 10 12.32733 01 39 53.52 +37 35 08.8          19.3 ToEU010926
    CK16T030  C2016 10 12.34174 01 39 52.97 +37 35 07.2          19.2 ToEU010926
    CK16T030 |C2016 10 12.38632 01 39 51.41 +37 35 01.2                vEU010H06
    CK16T030 |C2016 10 12.38952 01 39 51.27 +37 35 00.7          18.9 TvEU010H06
    CK16T030  C2016 10 13.34296 01 39 18.59 +37 32 51.8          19.1 ToEU010926
    CK16T030  C2016 10 13.36116 01 39 17.93 +37 32 49.5          19.2 ToEU010926
    CK16T030  C2016 10 13.38187 01 39 17.19 +37 32 46.7          19.4 ToEU010926
    CK16T030 "C2016 10 15.17456 01 38 14.55 +37 28 18.4                qEU010G40
    CK16T030 "C2016 10 15.18937 01 38 14.01 +37 28 15.7                qEU010G40
    CK16T030 "C2016 10 15.21097 01 38 13.20 +37 28 12.5          19.8 TqEU010G40
    CK16T030 KC2016 10 15.87837 01 37 50.01 +37 26 24.0          19.4 TqEU010104
    CK16T030 KC2016 10 15.90021 01 37 49.23 +37 26 19.4          19.4 TqEU010104
    CK16T030 KC2016 10 15.90032 01 37 49.25 +37 26 19.2          19.3 TqEU010104
    CK16T030 KC2016 10 16.01113 01 37 45.22 +37 26 01.3          19.5 TqEU010204
    CK16T030 KC2016 10 16.01860 01 37 44.94 +37 25 59.8                qEU010204
    CK16T030 KC2016 10 16.02627 01 37 44.68 +37 25 58.3                qEU010204
    CK16T030  C2016 10 18.27692 01 36 24.45 +37 19 15.1          19.2 ToEU010926
    CK16T030  C2016 10 18.29704 01 36 23.70 +37 19 11.2          19.1 ToEU010926
    CK16T030  C2016 10 18.31392 01 36 23.06 +37 19 08.5          19.0 ToEU010926
 
Observer details:
104 San Marcello Pistoiese.  Observer P. Bacci.  Measurers P. Bacci, L. Tesi,
    G. Fagioli.  0.60-m f/4 reflector + CCD.
204 Schiaparelli Observatory.  Observer L. Buzzi.  0.60-m f/4.64 reflector
    + CCD.
568 Mauna Kea.  Observers R. J. Wainscoat, R. Weryk, C. Wipper.  Measurers
    M. Micheli, R. Weryk.  3.6-m Canada-France-Hawaii Telescope + CCD.
926 Tenagra II Observatory.  Observers M. Schwartz, P. R. Holvorcem.  Measurer
    M. Schwartz.  0.81-m f/7 Ritchey-Chretien + CCD.
F51 Pan-STARRS 1, Haleakala.  Observers B. Gibson, T. Goggia, S. Kahale,
    A. Schultz, M. Willman.  Measurers K. Chambers, S. Chastel, L. Denneau,
    H. Flewelling, M. Huber, E. Lilly, E. Magnier, R. Wainscoat, C. Waters,
    R. Weryk.  1.8-m Ritchey-Chretien + CCD.
G40 Slooh.com Canary Islands Observatory.  Observers B. Lutkenhoner,
    G. Gasparovic, Y. Chen. J. L. Tuten.  Measurers B. Lutkenhoner,
    J. L. Tuten.  0.43-m f/6.8 Corrected Dall-Kirkham + CCD.
H06 iTelescope Observatory, Mayhill.  Observer H. Sato.  0.51-m f/6.8
    astrograph + CCD + f/4.5 focal reducer.
I89 iTelescope Observatory, Nerpio.  Observer H. Sato.  0.43-m f/6.8
    astrograph + CCD.
 
Orbital elements:
    C/2016 T3 (PANSTARRS)
T 2017 Sept. 6.74523 TT                                 MPCW
q   2.6229001            (2000.0)            P               Q
                   Peri.  195.51517     -0.27216781     -0.88116901
                   Node   271.52097     +0.91888064     -0.11874121
e   1.0            Incl.   22.75208     +0.28562747     -0.45764802
>From 31 observations 2016 Oct. 10-18.

Ephemeris:
    C/2016 T3 (PANSTARRS)
Date    TT    R. A. (2000) Decl.     Delta      r     Elong.  Phase   m1    m2
2016 09 18    01 50 46.3 +37 38 27   3.6897  4.4103   130.6    10.0  19.8
...
2016 10 03    01 44 51.7 +37 47 44   3.4606  4.3000   142.7     8.1  19.5
...
2016 10 11    01 40 38.6 +37 37 51   3.3590  4.2415   148.4     7.1  19.4
...
2016 10 17    01 37 10.1 +37 23 11   3.2931  4.1978   151.8     6.4  19.3
2016 10 18    01 36 34.4 +37 20 08   3.2830  4.1905   152.3     6.4  19.3
2016 10 19    01 35 58.4 +37 16 54   3.2732  4.1832   152.7     6.3  19.3
...
2016 10 25    01 32 20.4 +36 53 58   3.2200  4.1397   154.5     5.9  19.2
...
2016 11 02    01 27 34.3 +36 14 17   3.1643  4.0820   154.4     6.0  19.1
...
2016 11 17    01 19 55.5 +34 37 05   3.1069  3.9746   147.3     7.7  19.0

Gareth V. Williams           (C) Copyright 2016 MPC           M.P.E.C. 2016-U10




More information about the Iaude mailing list